Regional Weather Roundup
Issued by NWS

Home | Current Version | Previous Version | Graphics & Text | Print | Product List | Glossary On
Versions: 1 2 3 4 5 6 7 8 9 10 11 12 13 14 15 16 17 18 19 20 21 22 23 24 25 26 27 28 29 30 31 32 33 34 35 36 37 38 39 40 41 42 43 44 45 46 47 48 49 50
000
ASUS43 KDTX 301001
RWRMI
MICHIGAN HOURLY REGIONAL WEATHER ROUNDUP
NATIONAL WEATHER SERVICE DETROIT/PONTIAC MI
600 AM EDT THU MAR 30 2017

NOTE: "FAIR" INDICATES FEW OR NO CLOUDS BELOW 12,000 FEET WITH NO
SIGNIFICANT WEATHER AND/OR OBSTRUCTION TO VISIBILITY.

MIZ047>049-052>055-059>063-066>070-074>076-081>083-301100-
SOUTHEAST LOWER MICHIGAN

CITY           SKY/WX    TMP DP  RH WIND       PRES   REMARKS
ADRIAN         CLOUDY    41  32  70 E16G26    29.99F
ALMA           CLOUDY    37  32  82 NE8       30.06F WCI  30
ANN ARBOR      CLOUDY    41  33  73 NE15G23   30.01F
BAD AXE        CLOUDY    38  30  71 SE7       30.13F WCI  33
CARO           CLOUDY    39  32  75 E10G16    30.09F WCI  33
DETROIT CITY   CLOUDY    41  32  70 E17G24    30.06F
DETROIT        CLOUDY    43  32  65 E13       30.05F
FLINT          LGT RAIN  40  33  76 E15       30.05F WCI  32
GROSSE ILE     CLOUDY    42  32  67 E15G22    30.03F
HILLSDALE      LGT RAIN  37  32  81 E20G32    29.93F WCI  27
HOWELL         CLOUDY    40  32  74 E14G24    30.02F WCI  32

CITY           SKY/WX    TMP DP  RH WIND       PRES   REMARKS
JACKSON        CLOUDY    41  32  70 E17G25    29.96F
LAMBERTVILLE   CLOUDY    42  34  73 E9G21     30.00F
LANSING        LGT RAIN  38  33  82 E12       30.03F WCI  30
LAPEER         CLOUDY    40  32  74 E9        30.10F WCI  34
MASON          LGT RAIN  40  34  79 E15G21    30.00F WCI  32
MONROE         CLOUDY    42  33  72 E20G32    30.02F
MT. CLEMENS    MIX PCPN  41  35  79 E10       30.10S
PONTIAC        DRIZZLE   39  33  79 E12G23    30.05F WCI  32
PORT HOPE        N/A     36  31  82 E15       30.14F WCI  27
PORT HURON     CLOUDY    41  28  60 E13G20    30.13F
TRI CITIES     CLOUDY    38  32  79 E12       30.08F WCI  30
MIDLAND        CLOUDY    37  31  79 NE8       30.09F WCI  30
TROY           LGT RAIN  41  31  69 E12G22    30.09F
SAGINAW HB     CLOUDY    37  32  81 E10       30.08F WCI  30
$$
MIZ043>046-050>051-056>058-064>065-071>073-077>080-301100-
SOUTHWEST LOWER MICHIGAN

CITY           SKY/WX    TMP DP  RH WIND       PRES   REMARKS
BATTLE CREEK   HVY RAIN  40  35  83 E13       29.97F WCI  32
BENTON HARBOR  TSTM      41  37  86 E18G28    29.93S FOG
BIG RAPIDS     CLOUDY    35  27  73 E13       30.05S WCI  26
COLDWATER      LGT RAIN  42  33  70 E13G23    29.95R
FREMONT        LGT RAIN  35  29  78 E13       30.01F WCI  27
HOLLAND        RAIN      38  32  79 E10       30.00R WCI  31
GRAND RAPIDS   LGT RAIN  37  34  89 E16       30.00F WCI  28
IONIA          MIX PCPN  35  31  87 NE10      30.02F WCI  27
KALAMAZOO      RAIN      40  35  83 E8        29.99R WCI  34
LUDINGTON      CLOUDY    37  27  66 E9        30.06R WCI  30
MARSHALL       LGT RAIN  41  33  74 NE7       29.98R
MOUNT PLEASANT CLOUDY    36  29  77 NE8       30.07F WCI  29
MUSKEGON       RAIN      37  33  85 E10       30.01S WCI  30
SOUTH HAVEN    MIX PCPN  39  37  93 E10G16    29.97R WCI  32
$$
MIZ016>042-301100-
NORTHERN LOWER MICHIGAN

CITY           SKY/WX    TMP DP  RH WIND       PRES   REMARKS
ALPENA         CLOUDY    35  29  78 E9        30.20S WCI  28
BEAVER ISLAND  CLOUDY    33  27  79 E16G23    30.15F WCI  23
BELLAIRE       CLOUDY    36  24  60 NE3       30.14F
CADILLAC       CLOUDY    34  25  70 E9        30.06S WCI  26
CHARLEVOIX     CLOUDY    35  26  70 E12G17    30.16F WCI  26
FRANKFORT      CLOUDY    36  26  66 E3        30.08F
GAYLORD        CLOUDY    34  24  67 E8        30.12F WCI  27
HARBOR SPRINGS CLOUDY    33  27  77 E13G18    30.16F WCI  24
HOUGHTON LAKE  CLOUDY    33  27  78 E12       30.10F WCI  24
MANISTEE       CLOUDY    37  26  64 E8        30.07S WCI  31
OSCODA         CLOUDY    36  30  78 E7        30.16F WCI  31
PELLSTON       CLOUDY    34  25  69 E12       30.18F WCI  25
ROGERS CITY    CLOUDY    34  28  78 E10       30.23R WCI  26
TRAVERSE CITY  CLOUDY    37  25  61 E8        30.10F WCI  31
$$
MIZ007>008-015-301100-
EASTERN UPPER MICHIGAN

CITY           SKY/WX    TMP DP  RH WIND       PRES   REMARKS
KINROSS        CLOUDY    32  25  75 E14       30.20F WCI  22
MACKINAC ISLAN CLOUDY    33  28  80 E14G26    30.18F WCI  23
NEWBERRY       CLOUDY    31  24  75 E8        30.18F WCI  24
S. S. MARIE    CLOUDY    34  22  61 E9        30.22F WCI  27
MUNISING         N/A     35  23  61 S6        30.15F WCI  30
$$
MIZ004>006-011>014-085-301100-
CENTRAL UPPER MICHIGAN

CITY           SKY/WX    TMP DP  RH WIND       PRES   REMARKS
MANISTIQUE     CLOUDY    33  26  73 E13G20    30.15F WCI  24
ESCANABA       CLOUDY    35  26  69 E10       30.14F WCI  27
MENOMINEE      LGT RAIN  36  29  75 E8        30.11S WCI  30
SAWYER-GWINN   CLOUDY    33  23  67 SE9       30.12F WCI  25
$$
MIZ001>003-009>011-084-301100-
WESTERN UPPER MICHIGAN

CITY           SKY/WX    TMP DP  RH WIND       PRES   REMARKS
IRON MOUNTAIN  CLOUDY    34  23  64 E7        30.08F WCI  28
HOUGHTON       CLOUDY    32  28  85 E12       30.12S WCI  23
COPPER HARBOR    N/A     36  24  62 S7        30.15F WCI  30
IRONWOOD       CLOUDY    34  28  79 E5        30.07F WCI  30
$$

ABBREVIATIONS USED IN REMARKS
   TC - TEMPERATURE IN CELSIUS
  WCI - WIND CHILL INDEX
   HX - HEAT INDEX
  VSB - VISIBILITY




USA.gov is the U.S. government's official web portal to all federal, state and local government web resources and services.